SCP
0 0 0 0 0 0 0 0 0 0 0 0 0 0 0 0 -0 0 0 0 0 0 0 -0 0 0 0 -0 -0 -0 0 -0 -0 -0 -0 -0 -0 -0 -0 -0 -0 -0 -0 -0 -0 -0 -0 -0 -0
0 0 0 0 0 0 0 0 0 0 0 0 0 0 -0 -0 0 0 0 0 0 0 0 0 0 0 -0 -0 -0 0 0 -0 -0 -0 -0 -0 -0 -0 -0 -0 -0 -0 -0 -0 -0 -0 -0 -0 -0
0 0 0 0 0 0 0 0 0 0 0 0 0 0 0 -0 0 0 0 0 0 0 0 0 0 0 0 -0 -0 0 0 -0 -0 -0 -0 -0 -0 -0 -0 -0 -0 -0 -0 -0 -0 -0 -0 0 0
0 0 0 0 0 0 0 0 0 0 0 0 0 -0 0 0 0 0 0 0 0 0 0 0 0 0 0 -0 0 0 0 -0 -0 -0 -0 -0 -0 -0 -0 -0 -0 -0 -0 -0 -0 -0 -0 0 0
0 0 0 0 0 0 0 0 0 0 0 0 0 -0 0 0 0 0 0 0 0 0 0 0 0 0 0 -0 -0 -0 0 -0 -0 -0 0 -0 -0 -0 -0 -0 -0 -0 -0 -0 -0 -0 0 0 0
0 0 0 0 0 0 0 0 0 0 0 0 -0 -0 -0 0 0 0 0 0 0 0 0 0 0 0 0 0 -0 0 -0 -0 -0 -0 0 -0 -0 -0 -0 -0 -0 -0 -0 -0 -0 -0 -0 0 0
0 0 0 0 0 0 0 0 0 0 0 -0 0 -0 0 0 0 0 0 0 0 0 0 0 0 0 0 0 -0 -0 -0 -0 -0 -0 0 -0 -0 -0 -0 -0 -0 -0 -0 -0 -0 -0 -0 0 0
0 0 0 0 0 0 0 0 0 0 0 0 0 -0 -0 -0 0 0 0 0 0 0 0 0 0 0 0 0 -0 -0 -0 -0 -0 -0 -0 -0 -0 -0 -0 -0 -0 -0 -0 -0 -0 -0 -0 0 0
0 0 0 0 0 0 0 0 0 0 0 0 0 0 0 0 0 0 0 0 0 0 0 0 0 0 0 -0 -0 -0 -0 -0 -0 0 0 0 0 0 0 -0 -0 -0 -0 -0 -0 -0 -0 -0 -0
0 0 0 0 0 0 0 0 0 0 0 0 0 0 0 -0 -0 0 0 0 0 0 0 0 0 0 0 0 -0 0 -0 0 0 0 0 0 0 0 -0 -0 -0 -0 -0 -0 -0 0 0 -0 -0
0 0 0 0 0 0 0 0 0 0 0 0 -0 -0 0 -0 -0 0 0 0 0 0 0 0 0 0 0 0 -0 0 0 0 0 0 0 0 0 0 0 0 0 0 0 0 0 0 0 0 -0
0 0 0 0 0 0 0 0 0 0 0 0 0 0 0 -0 0 0 0 0 0 0 0 0 0 0 0 0 -0 0 0 0 0 0 0 0 0 0 0 0 0 0 0 0 0 0 0 0 0
0 0 0 0 0 0 0 0 0 0 0 0 0 0 -0 0 0 0 0 0 0 0 0 0 0 0 0 0 -0 0 0 -0 0 0 0 0 0 0 0 0 0 0 0 0 0 0 0 0 0
0 0 0 0 0 0 0 0 0 0 0 0 0 0 0 0 0 0 0 0 0 0 0 0 0 0 0 0 0 -0 -0 -0 0 0 0 0 0 0 0 0 0 0 0 0 0 0 0 0 0
0 0 0 0 0 0 0 0 0 0 0 0 0 0 0 0 0 0 0 0 0 0 0 0 0 0 0 0 0 0 0 0 0 0 0 0 0 0 0 0 0 0 0 0 0 0 0 0 0
0 0 0 0 0 0 0 0 0 0 0 0 0 0 0 0 0 0 0 0 0 0 0 0 0 0 0 0 0 0 0 0 0 0 0 0 0 0 0 0 0 0 0 0 0 0 0 0 0
0 0 0 0 0 0 0 0 0 0 0 0 0 0 0 0 0 0 0 0 0 0 0 0 0 0 0 0 0 0 0 0 0 0 0 0 0 0 0 0 0 0 0 0 0 0 0 0 0
0 0 0 0 -0 0 0 0 -0 0 0 0 0 0 0 0 0 0 0 0 0 0 0 0 0 0 0 0 0 0 0 0 0 0 0 0 0 0 0 0 0 0 0 0 0 0 0 0 0
0 0 0 0 0 0 0 0 0 -0 0 0 0 0 0 0 0 0 0 0 0 0 0 0 0 0 0 0 0 0 0 0 0 0 0 0 0 0 0 0 0 0 0 0 0 0 0 0 0
0 0 0 0 0 0 0 0 0 0 0 0 0 0 0 0 0 0 0 0 0 0 0 0 0 0 0 0 0 0 0 0 0 0 0 0 0 0 0 0 0 0 0 0 0 0 0 0 0
0 0 0 0 0 0 0 0 0 0 0 0 0 0 0 0 0 0 0 0 0 0 0 0 0 0 0 0 0 0 0 0 0 0 0 0 0 0 0 0 0 0 0 0 0 0 0 0 0
0 0 0 0 0 0 0 0 0 0 0 0 0 0 0 0 0 0 0 0 0 0 0 0 0 0 0 0 0 0 0 0 0 0 0 0 0 0 0 0 0 0 0 0 0 0 0 0 0
0 0 0 0 0 0 0 0 0 0 0 0 0 0 0 0 0 0 0 0 0 0 0 0 0 0 0 0 0 0 0 0 0 0 0 0 0 0 0 0 0 0 0 0 0 0 0 0 0
0 0 0 0 0 0 0 0 0 0 0 0 0 0 0 0 0 0 0 0 0 0 0 0 0 0 0 0 0 0 0 0 0 0 0 0 0 0 0 0 0 0 0 0 0 0 0 0 0
0 0 0 0 0 0 0 0 0 0 0 0 0 0 0 0 0 0 0 0 0 0 0 0 0 0 0 0 0 0 0 0 0 0 0 0 0 0 0 0 0 0 0 0 0 0 0 0 0
0 0 0 0 0 0 0 0 0 0 0 0 0 0 0 0 0 0 0 0 0 0 0 0 0 0 0 0 0 0 0 0 0 0 0 0 0 0 0 0 0 0 0 0 0 0 0 0 0
0 0 0 0 0 0 0 0 0 0 0 0 0 0 0 0 0 0 0 0 0 0 0 0 0 0 0 0 0 0 0 0 0 0 0 0 0 0 0 0 0 0 0 0 0 0 0 0 0
0 0 0 0 0 0 0 0 0 0 0 0 0 0 0 0 0 0 0 0 0 0 0 0 0 0 0 0 0 0 0 0 0 0 0 0 0 0 0 0 0 0 0 0 0 0 0 0 0
0 0 0 0 0 0 0 0 0 0 0 0 0 0 0 0 0 0 0 0 0 0 0 0 0 0 0 0 0 0 0 0 0 0 0 0 0 0 0 0 0 0 0 0 0 0 0 0 0
0 0 0 0 0 0 0 0 0 0 0 0 0 0 0 0 0 0 0 0 0 0 0 0 0 0 0 0 0 0 0 0 0 0 0 0 0 0 0 0 0 0 0 0 0 0 0 0 0
Wind_Speed_500mb
16 15 12 4 12 9 20 16 13 10 12 6 7 3 15 20 13 7 25 22 29 25 29 40 31 24 17 30 21 10 11 4 17 30 31 30 29 30 30 31 34 32 33 34 34 35 36 36 37
14 12 8 12 11 17 16 16 16 17 16 15 11 4 3 11 13 22 25 27 25 23 27 33 32 23 31 28 16 12 4 8 26 31 29 28 31 30 30 31 31 32 32 32 33 34 35 36 37
15 7 24 15 23 23 15 11 18 17 16 11 8 4 5 8 12 29 24 31 26 25 30 38 38 23 33 25 14 5 4 6 30 27 27 29 29 28 28 31 31 31 32 33 34 35 36 36 37
8 12 16 17 22 23 13 10 17 23 8 7 3 11 12 12 23 17 33 31 28 28 28 46 42 30 21 16 12 8 9 11 31 26 26 27 28 27 29 29 29 30 31 33 35 35 36 36 37
12 17 15 18 24 9 5 7 19 21 15 13 11 10 9 13 19 30 33 30 29 27 30 43 46 35 24 17 15 12 8 28 25 26 25 27 27 25 27 27 28 29 30 32 33 34 35 36 36
11 16 18 20 24 14 8 9 21 22 13 12 9 15 10 18 27 32 31 30 27 29 31 43 44 36 26 18 13 8 5 28 25 25 26 26 26 25 26 26 26 27 27 29 31 32 34 36 37
22 15 23 19 18 14 12 20 18 16 14 11 2 11 11 25 30 32 31 29 28 27 28 34 52 38 28 24 17 10 9 24 26 26 28 27 28 25 24 24 24 24 25 26 27 29 31 33 35
19 17 32 20 16 20 17 26 15 20 15 13 9 7 11 35 38 34 30 27 27 27 25 24 52 37 28 32 24 16 11 25 26 25 26 26 24 22 21 20 21 22 22 23 23 26 28 30 32
12 18 23 30 17 13 22 22 13 9 11 12 12 3 13 41 42 37 32 29 27 29 29 27 32 41 38 36 29 19 16 23 26 24 26 27 20 19 16 18 18 18 19 19 20 21 23 26 28
20 21 30 6 7 7 24 27 21 15 21 17 15 13 24 35 42 40 35 34 32 32 33 31 32 35 47 36 31 23 23 24 24 23 26 21 22 20 15 15 14 15 15 15 15 16 18 20 23
21 28 19 4 4 4 19 22 18 20 19 24 28 29 33 37 40 38 34 32 34 34 36 36 36 37 41 42 36 24 20 25 26 25 25 24 21 19 16 14 13 12 11 11 10 11 13 15 17
22 36 13 2 6 9 20 14 14 27 4 10 10 32 35 39 42 42 37 35 36 38 39 42 40 41 48 47 37 33 24 24 28 28 25 25 23 20 17 15 13 12 10 9 6 6 6 8 10
32 21 19 11 8 14 14 23 21 29 17 14 16 24 33 35 37 38 35 35 37 39 42 45 44 45 52 48 42 27 26 28 30 30 29 28 25 23 20 18 16 14 12 10 7 4 1 1 4
13 36 17 12 13 12 16 16 8 26 26 18 19 24 30 34 38 39 40 39 40 40 42 43 43 45 49 50 39 29 28 31 33 33 33 31 28 25 24 22 20 19 17 14 12 10 8 7 6
17 19 19 17 14 9 15 17 24 15 22 22 23 23 29 32 37 44 42 40 40 42 42 44 43 42 46 50 40 38 34 33 36 35 35 34 31 28 27 26 25 24 22 19 18 16 15 14 12
21 24 22 24 20 11 16 23 30 25 23 24 25 26 27 31 39 42 40 39 40 41 44 45 44 42 43 48 45 38 39 37 38 38 37 36 34 32 31 30 30 28 27 26 24 23 21 20 19
25 22 36 18 24 11 24 21 18 16 23 26 26 28 28 29 38 42 42 42 42 44 46 46 44 42 42 46 44 42 40 41 42 41 41 39 38 36 35 34 34 33 32 31 30 29 27 26 26
27 34 23 34 18 20 24 31 15 17 23 30 28 30 32 35 40 43 45 43 43 43 44 45 45 44 44 46 47 46 43 44 46 44 42 41 40 40 39 38 39 37 37 36 35 34 32 31 31
29 29 33 22 10 15 31 32 32 31 24 25 30 36 36 37 33 40 46 48 49 48 49 50 50 48 49 52 52 50 46 46 49 48 46 44 42 42 42 42 42 40 40 38 38 37 38 36 35
18 25 28 8 5 8 19 29 29 33 41 42 39 37 39 37 39 43 48 53 57 54 53 51 52 52 54 53 48 48 45 46 47 48 49 46 45 44 44 44 44 44 42 42 43 41 40 39 39
33 28 26 15 11 9 13 35 39 41 47 44 44 45 44 43 42 46 51 57 58 62 60 57 57 56 58 56 51 49 48 51 50 52 50 48 47 46 45 45 46 46 45 46 46 45 44 43 40
36 18 7 13 10 13 6 11 9 21 25 28 42 44 47 44 42 42 49 55 62 62 61 62 62 62 61 57 54 54 52 50 46 47 45 45 45 46 46 46 48 49 49 49 49 48 47 46 45
28 22 18 11 9 8 14 10 12 12 21 23 24 26 31 35 39 42 46 52 58 60 65 64 65 67 66 62 60 59 55 50 50 48 47 46 45 46 48 47 48 51 52 51 51 53 52 51 50
26 19 12 7 10 14 27 18 13 13 11 17 15 10 11 18 24 38 40 42 50 57 64 66 68 70 70 67 65 62 59 58 57 53 49 49 47 47 47 47 49 51 52 53 53 53 56 54 55
28 31 11 11 12 15 5 10 26 7 7 13 11 7 3 7 15 18 30 51 52 58 64 69 71 72 72 72 71 66 64 62 60 58 53 51 52 51 45 46 49 50 51 53 54 56 57 57 58
46 38 12 14 10 15 3 15 8 3 2 2 5 3 6 7 9 12 21 31 40 48 61 69 73 74 74 72 70 68 66 66 64 61 58 55 55 52 49 50 50 49 51 54 55 58 59 59 60
35 29 4 10 4 2 11 12 11 8 10 13 13 15 15 13 12 8 9 18 25 33 45 57 65 66 67 67 66 66 67 67 65 64 61 60 58 56 55 55 55 54 54 55 57 60 60 61 61
17 18 11 6 12 10 10 11 13 22 22 15 18 18 17 16 16 16 14 10 11 13 19 29 41 49 55 62 64 64 65 65 65 65 64 61 60 60 59 59 59 59 58 58 60 61 60 62 62
11 15 14 9 5 6 4 8 8 32 28 23 19 16 16 15 16 19 20 17 13 9 9 15 24 31 38 44 50 56 59 62 64 65 63 62 61 62 63 61 62 63 63 63 64 64 62 64 64
16 31 30 13 12 5 2 3 15 29 26 25 23 18 13 13 14 17 19 19 18 16 11 8 8 12 19 26 33 41 48 53 57 60 61 63 65 65 66 65 66 66 67 66 68 67 66 65 66
Wind_Direction_500mb
324 322 305 320 248 229 252 221 256 198 188 90 64 324 37 40 4 50 141 142 144 143 151 162 153 143 125 143 140 138 90 33 115 106 99 104 101 97 91 89 90 86 83 79 76 74 73 71 71
314 312 256 256 257 251 238 221 205 212 88 120 110 101 97 76 63 128 137 143 143 143 151 165 162 131 137 138 148 105 59 91 119 107 106 109 105 100 97 94 93 90 86 81 77 74 72 71 70
304 281 255 226 235 242 256 162 221 98 137 156 135 56 65 77 108 135 151 145 140 137 147 168 161 135 145 134 143 124 284 128 116 115 110 107 105 104 99 97 94 89 84 78 73 71 70 70 71
300 241 241 250 242 246 281 162 124 152 154 166 154 121 92 117 137 149 146 141 142 137 153 163 160 145 143 150 179 231 274 161 123 121 117 116 108 102 102 98 92 85 79 75 72 70 69 70 70
281 253 227 238 266 326 259 282 177 175 150 166 189 128 100 142 146 146 147 148 146 137 157 165 166 164 144 161 198 244 245 134 124 119 117 112 109 108 102 97 90 85 81 78 75 71 69 70 71
258 260 236 227 219 230 214 208 193 186 156 144 192 146 121 162 148 152 151 152 152 148 151 178 167 171 171 182 201 225 202 135 131 126 122 122 116 112 106 101 94 88 84 80 76 72 70 69 69
243 238 250 252 230 195 202 169 205 188 169 175 137 182 135 161 161 158 154 156 156 160 157 182 179 169 178 201 193 217 199 145 139 138 139 134 126 120 114 107 100 94 89 84 80 76 72 69 69
262 258 243 248 243 218 160 174 194 194 168 157 176 196 156 177 167 161 162 164 161 166 168 169 196 171 183 204 201 211 247 175 161 155 144 130 118 115 111 113 108 103 97 91 85 79 75 71 68
254 246 237 232 233 215 165 182 179 187 154 177 169 123 134 168 166 166 166 169 173 170 169 167 168 174 181 199 195 199 240 210 176 159 145 130 127 128 136 124 119 110 103 96 88 82 76 73 69
233 231 242 297 219 240 185 200 177 183 187 192 178 181 152 168 173 173 178 178 180 179 176 171 171 180 184 194 190 198 227 192 174 158 156 149 155 157 142 132 124 117 112 105 97 88 80 72 69
225 246 244 256 243 207 187 207 187 217 205 216 206 180 177 176 180 182 186 187 184 183 184 179 175 180 183 186 185 190 214 201 181 174 172 170 164 165 165 163 157 148 140 126 114 98 82 71 66
246 238 261 249 196 193 190 199 211 221 175 122 153 188 184 185 185 187 190 187 184 186 190 189 184 186 187 192 194 209 219 196 190 187 186 181 182 184 184 187 181 175 166 157 145 117 90 72 61
234 242 234 239 220 223 217 211 225 213 206 171 148 176 187 193 188 189 192 190 187 191 193 197 198 195 194 198 202 209 215 205 198 197 196 193 194 197 198 201 203 203 200 201 202 207 214 33 30
236 232 236 223 216 203 206 210 212 216 184 172 183 184 191 194 191 188 194 193 194 197 199 199 202 203 204 205 209 205 216 207 205 204 202 203 205 209 211 213 217 219 223 227 234 245 262 279 300
240 224 220 216 204 209 213 218 223 178 187 189 192 188 192 197 195 197 195 196 199 201 203 203 204 207 209 209 207 211 218 210 210 210 209 211 214 217 220 221 224 229 233 238 245 251 261 272 281
212 241 222 206 186 181 209 252 206 185 188 203 199 195 194 199 201 198 197 197 202 204 207 208 206 206 208 206 207 209 218 215 213 216 217 217 220 223 226 229 232 236 240 244 249 255 262 270 277
209 223 223 175 205 168 205 246 131 189 207 214 203 204 200 198 205 199 198 198 202 203 206 209 210 209 208 207 207 211 219 218 219 223 223 225 228 229 231 235 238 241 244 248 253 257 261 269 274
206 223 230 225 185 216 210 242 162 198 213 219 216 211 209 205 210 201 199 200 204 205 208 212 212 211 212 211 211 215 219 221 223 226 228 231 233 234 235 239 243 245 247 251 255 258 262 266 273
248 221 231 223 105 237 233 245 244 201 203 222 223 221 216 216 209 204 202 206 205 208 210 212 214 214 214 215 214 217 220 224 226 230 233 237 238 238 239 242 245 248 250 254 256 256 261 268 271
239 221 229 101 174 231 253 251 253 244 236 225 229 224 223 220 209 202 206 208 214 216 215 217 218 218 220 223 222 222 225 230 233 236 237 239 240 241 242 244 248 252 252 254 256 257 260 264 267
217 227 227 250 167 226 287 271 249 238 235 229 232 232 227 219 214 205 205 212 217 217 220 222 223 222 224 224 224 224 226 230 232 236 238 239 241 243 245 247 249 252 253 256 257 259 259 262 266
212 212 224 174 198 246 207 285 207 222 206 224 224 226 228 226 222 214 212 212 218 224 225 224 224 226 229 228 229 232 234 238 241 245 247 247 245 246 248 248 249 253 256 255 259 260 260 259 256
227 165 181 177 222 299 207 255 240 162 213 207 214 223 227 228 225 219 215 222 222 226 227 229 227 229 232 231 233 234 237 240 245 244 245 245 246 246 248 250 251 253 256 258 257 259 259 260 260
138 134 135 161 223 247 236 227 257 202 181 161 179 199 227 225 223 219 213 220 223 225 227 229 229 232 232 234 235 236 238 240 242 247 247 249 251 251 252 255 255 256 257 259 260 259 260 260 260
184 170 175 207 213 238 61 224 261 183 248 282 264 275 252 199 200 215 219 218 217 222 227 229 230 230 233 233 236 237 239 242 245 249 251 253 255 257 258 259 259 260 261 260 260 260 261 262 261
197 191 177 197 206 212 110 225 234 23 331 283 207 172 123 127 179 212 218 217 219 221 230 230 229 228 231 234 236 238 240 244 249 251 254 255 259 261 260 259 260 260 260 260 260 261 262 263 263
199 216 205 108 59 195 200 243 263 159 134 139 125 125 109 93 96 122 171 201 213 225 229 229 228 228 233 237 238 238 241 244 249 253 254 256 259 261 260 261 262 262 262 263 263 263 264 265 266
218 165 183 227 174 220 195 257 221 179 166 151 138 122 105 93 85 85 96 133 177 203 216 221 224 229 235 241 241 240 243 246 249 251 254 257 259 261 261 262 263 264 265 265 265 266 266 266 267
167 189 208 227 223 253 210 234 331 172 163 154 137 120 105 91 83 83 84 86 102 132 170 199 215 224 232 239 239 240 242 246 249 252 254 257 259 261 263 263 263 264 265 266 266 267 268 267 267
248 213 199 201 190 233 341 262 319 151 152 146 139 127 106 98 96 89 85 88 87 89 103 132 186 216 230 238 240 243 246 250 252 254 256 258 259 261 263 263 263 264 265 265 266 267 268 268 268
Wind_Speed_850mb
16 15 12 4 12 9 20 16 13 10 12 6 7 3 15 20 13 7 25 22 29 25 29 40 31 24 17 30 21 10 11 4 17 30 31 30 29 30 30 31 34 32 33 34 34 35 36 36 37
14 12 8 12 11 17 16 16 16 17 16 15 11 4 3 11 13 22 25 27 25 23 27 33 32 23 31 28 16 12 4 8 26 31 29 28 31 30 30 31 31 32 32 32 33 34 35 36 37
15 7 24 15 23 23 15 11 18 17 16 11 8 4 5 8 12 29 24 31 26 25 30 38 38 23 33 25 14 5 4 6 30 27 27 29 29 28 28 31 31 31 32 33 34 35 36 36 37
8 12 16 17 22 23 13 10 17 23 8 7 3 11 12 12 23 17 33 31 28 28 28 46 42 30 21 16 12 8 9 11 31 26 26 27 28 27 29 29 29 30 31 33 35 35 36 36 37
12 17 15 18 24 9 5 7 19 21 15 13 11 10 9 13 19 30 33 30 29 27 30 43 46 35 24 17 15 12 8 28 25 26 25 27 27 25 27 27 28 29 30 32 33 34 35 36 36
11 16 18 20 24 14 8 9 21 22 13 12 9 15 10 18 27 32 31 30 27 29 31 43 44 36 26 18 13 8 5 28 25 25 26 26 26 25 26 26 26 27 27 29 31 32 34 36 37
22 15 23 19 18 14 12 20 18 16 14 11 2 11 11 25 30 32 31 29 28 27 28 34 52 38 28 24 17 10 9 24 26 26 28 27 28 25 24 24 24 24 25 26 27 29 31 33 35
19 17 32 20 16 20 17 26 15 20 15 13 9 7 11 35 38 34 30 27 27 27 25 24 52 37 28 32 24 16 11 25 26 25 26 26 24 22 21 20 21 22 22 23 23 26 28 30 32
12 18 23 30 17 13 22 22 13 9 11 12 12 3 13 41 42 37 32 29 27 29 29 27 32 41 38 36 29 19 16 23 26 24 26 27 20 19 16 18 18 18 19 19 20 21 23 26 28
20 21 30 6 7 7 24 27 21 15 21 17 15 13 24 35 42 40 35 34 32 32 33 31 32 35 47 36 31 23 23 24 24 23 26 21 22 20 15 15 14 15 15 15 15 16 18 20 23
21 28 19 4 4 4 19 22 18 20 19 24 28 29 33 37 40 38 34 32 34 34 36 36 36 37 41 42 36 24 20 25 26 25 25 24 21 19 16 14 13 12 11 11 10 11 13 15 17
22 36 13 2 6 9 20 14 14 27 4 10 10 32 35 39 42 42 37 35 36 38 39 42 40 41 48 47 37 33 24 24 28 28 25 25 23 20 17 15 13 12 10 9 6 6 6 8 10
32 21 19 11 8 14 14 23 21 29 17 14 16 24 33 35 37 38 35 35 37 39 42 45 44 45 52 48 42 27 26 28 30 30 29 28 25 23 20 18 16 14 12 10 7 4 1 1 4
13 36 17 12 13 12 16 16 8 26 26 18 19 24 30 34 38 39 40 39 40 40 42 43 43 45 49 50 39 29 28 31 33 33 33 31 28 25 24 22 20 19 17 14 12 10 8 7 6
17 19 19 17 14 9 15 17 24 15 22 22 23 23 29 32 37 44 42 40 40 42 42 44 43 42 46 50 40 38 34 33 36 35 35 34 31 28 27 26 25 24 22 19 18 16 15 14 12
21 24 22 24 20 11 16 23 30 25 23 24 25 26 27 31 39 42 40 39 40 41 44 45 44 42 43 48 45 38 39 37 38 38 37 36 34 32 31 30 30 28 27 26 24 23 21 20 19
25 22 36 18 24 11 24 21 18 16 23 26 26 28 28 29 38 42 42 42 42 44 46 46 44 42 42 46 44 42 40 41 42 41 41 39 38 36 35 34 34 33 32 31 30 29 27 26 26
27 34 23 34 18 20 24 31 15 17 23 30 28 30 32 35 40 43 45 43 43 43 44 45 45 44 44 46 47 46 43 44 46 44 42 41 40 40 39 38 39 37 37 36 35 34 32 31 31
29 29 33 22 10 15 31 32 32 31 24 25 30 36 36 37 33 40 46 48 49 48 49 50 50 48 49 52 52 50 46 46 49 48 46 44 42 42 42 42 42 40 40 38 38 37 38 36 35
18 25 28 8 5 8 19 29 29 33 41 42 39 37 39 37 39 43 48 53 57 54 53 51 52 52 54 53 48 48 45 46 47 48 49 46 45 44 44 44 44 44 42 42 43 41 40 39 39
33 28 26 15 11 9 13 35 39 41 47 44 44 45 44 43 42 46 51 57 58 62 60 57 57 56 58 56 51 49 48 51 50 52 50 48 47 46 45 45 46 46 45 46 46 45 44 43 40
36 18 7 13 10 13 6 11 9 21 25 28 42 44 47 44 42 42 49 55 62 62 61 62 62 62 61 57 54 54 52 50 46 47 45 45 45 46 46 46 48 49 49 49 49 48 47 46 45
28 22 18 11 9 8 14 10 12 12 21 23 24 26 31 35 39 42 46 52 58 60 65 64 65 67 66 62 60 59 55 50 50 48 47 46 45 46 48 47 48 51 52 51 51 53 52 51 50
26 19 12 7 10 14 27 18 13 13 11 17 15 10 11 18 24 38 40 42 50 57 64 66 68 70 70 67 65 62 59 58 57 53 49 49 47 47 47 47 49 51 52 53 53 53 56 54 55
28 31 11 11 12 15 5 10 26 7 7 13 11 7 3 7 15 18 30 51 52 58 64 69 71 72 72 72 71 66 64 62 60 58 53 51 52 51 45 46 49 50 51 53 54 56 57 57 58
46 38 12 14 10 15 3 15 8 3 2 2 5 3 6 7 9 12 21 31 40 48 61 69 73 74 74 72 70 68 66 66 64 61 58 55 55 52 49 50 50 49 51 54 55 58 59 59 60
35 29 4 10 4 2 11 12 11 8 10 13 13 15 15 13 12 8 9 18 25 33 45 57 65 66 67 67 66 66 67 67 65 64 61 60 58 56 55 55 55 54 54 55 57 60 60 61 61
17 18 11 6 12 10 10 11 13 22 22 15 18 18 17 16 16 16 14 10 11 13 19 29 41 49 55 62 64 64 65 65 65 65 64 61 60 60 59 59 59 59 58 58 60 61 60 62 62
11 15 14 9 5 6 4 8 8 32 28 23 19 16 16 15 16 19 20 17 13 9 9 15 24 31 38 44 50 56 59 62 64 65 63 62 61 62 63 61 62 63 63 63 64 64 62 64 64
16 31 30 13 12 5 2 3 15 29 26 25 23 18 13 13 14 17 19 19 18 16 11 8 8 12 19 26 33 41 48 53 57 60 61 63 65 65 66 65 66 66 67 66 68 67 66 65 66
Wind_Direction_850mb
324 322 305 320 248 229 252 221 256 198 188 90 64 324 37 40 4 50 141 142 144 143 151 162 153 143 125 143 140 138 90 33 115 106 99 104 101 97 91 89 90 86 83 79 76 74 73 71 71
314 312 256 256 257 251 238 221 205 212 88 120 110 101 97 76 63 128 137 143 143 143 151 165 162 131 137 138 148 105 59 91 119 107 106 109 105 100 97 94 93 90 86 81 77 74 72 71 70
304 281 255 226 235 242 256 162 221 98 137 156 135 56 65 77 108 135 151 145 140 137 147 168 161 135 145 134 143 124 284 128 116 115 110 107 105 104 99 97 94 89 84 78 73 71 70 70 71
300 241 241 250 242 246 281 162 124 152 154 166 154 121 92 117 137 149 146 141 142 137 153 163 160 145 143 150 179 231 274 161 123 121 117 116 108 102 102 98 92 85 79 75 72 70 69 70 70
281 253 227 238 266 326 259 282 177 175 150 166 189 128 100 142 146 146 147 148 146 137 157 165 166 164 144 161 198 244 245 134 124 119 117 112 109 108 102 97 90 85 81 78 75 71 69 70 71
258 260 236 227 219 230 214 208 193 186 156 144 192 146 121 162 148 152 151 152 152 148 151 178 167 171 171 182 201 225 202 135 131 126 122 122 116 112 106 101 94 88 84 80 76 72 70 69 69
243 238 250 252 230 195 202 169 205 188 169 175 137 182 135 161 161 158 154 156 156 160 157 182 179 169 178 201 193 217 199 145 139 138 139 134 126 120 114 107 100 94 89 84 80 76 72 69 69
262 258 243 248 243 218 160 174 194 194 168 157 176 196 156 177 167 161 162 164 161 166 168 169 196 171 183 204 201 211 247 175 161 155 144 130 118 115 111 113 108 103 97 91 85 79 75 71 68
254 246 237 232 233 215 165 182 179 187 154 177 169 123 134 168 166 166 166 169 173 170 169 167 168 174 181 199 195 199 240 210 176 159 145 130 127 128 136 124 119 110 103 96 88 82 76 73 69
233 231 242 297 219 240 185 200 177 183 187 192 178 181 152 168 173 173 178 178 180 179 176 171 171 180 184 194 190 198 227 192 174 158 156 149 155 157 142 132 124 117 112 105 97 88 80 72 69
225 246 244 256 243 207 187 207 187 217 205 216 206 180 177 176 180 182 186 187 184 183 184 179 175 180 183 186 185 190 214 201 181 174 172 170 164 165 165 163 157 148 140 126 114 98 82 71 66
246 238 261 249 196 193 190 199 211 221 175 122 153 188 184 185 185 187 190 187 184 186 190 189 184 186 187 192 194 209 219 196 190 187 186 181 182 184 184 187 181 175 166 157 145 117 90 72 61
234 242 234 239 220 223 217 211 225 213 206 171 148 176 187 193 188 189 192 190 187 191 193 197 198 195 194 198 202 209 215 205 198 197 196 193 194 197 198 201 203 203 200 201 202 207 214 33 30
236 232 236 223 216 203 206 210 212 216 184 172 183 184 191 194 191 188 194 193 194 197 199 199 202 203 204 205 209 205 216 207 205 204 202 203 205 209 211 213 217 219 223 227 234 245 262 279 300
240 224 220 216 204 209 213 218 223 178 187 189 192 188 192 197 195 197 195 196 199 201 203 203 204 207 209 209 207 211 218 210 210 210 209 211 214 217 220 221 224 229 233 238 245 251 261 272 281
212 241 222 206 186 181 209 252 206 185 188 203 199 195 194 199 201 198 197 197 202 204 207 208 206 206 208 206 207 209 218 215 213 216 217 217 220 223 226 229 232 236 240 244 249 255 262 270 277
209 223 223 175 205 168 205 246 131 189 207 214 203 204 200 198 205 199 198 198 202 203 206 209 210 209 208 207 207 211 219 218 219 223 223 225 228 229 231 235 238 241 244 248 253 257 261 269 274
206 223 230 225 185 216 210 242 162 198 213 219 216 211 209 205 210 201 199 200 204 205 208 212 212 211 212 211 211 215 219 221 223 226 228 231 233 234 235 239 243 245 247 251 255 258 262 266 273
248 221 231 223 105 237 233 245 244 201 203 222 223 221 216 216 209 204 202 206 205 208 210 212 214 214 214 215 214 217 220 224 226 230 233 237 238 238 239 242 245 248 250 254 256 256 261 268 271
239 221 229 101 174 231 253 251 253 244 236 225 229 224 223 220 209 202 206 208 214 216 215 217 218 218 220 223 222 222 225 230 233 236 237 239 240 241 242 244 248 252 252 254 256 257 260 264 267
217 227 227 250 167 226 287 271 249 238 235 229 232 232 227 219 214 205 205 212 217 217 220 222 223 222 224 224 224 224 226 230 232 236 238 239 241 243 245 247 249 252 253 256 257 259 259 262 266
212 212 224 174 198 246 207 285 207 222 206 224 224 226 228 226 222 214 212 212 218 224 225 224 224 226 229 228 229 232 234 238 241 245 247 247 245 246 248 248 249 253 256 255 259 260 260 259 256
227 165 181 177 222 299 207 255 240 162 213 207 214 223 227 228 225 219 215 222 222 226 227 229 227 229 232 231 233 234 237 240 245 244 245 245 246 246 248 250 251 253 256 258 257 259 259 260 260
138 134 135 161 223 247 236 227 257 202 181 161 179 199 227 225 223 219 213 220 223 225 227 229 229 232 232 234 235 236 238 240 242 247 247 249 251 251 252 255 255 256 257 259 260 259 260 260 260
184 170 175 207 213 238 61 224 261 183 248 282 264 275 252 199 200 215 219 218 217 222 227 229 230 230 233 233 236 237 239 242 245 249 251 253 255 257 258 259 259 260 261 260 260 260 261 262 261
197 191 177 197 206 212 110 225 234 23 331 283 207 172 123 127 179 212 218 217 219 221 230 230 229 228 231 234 236 238 240 244 249 251 254 255 259 261 260 259 260 260 260 260 260 261 262 263 263
199 216 205 108 59 195 200 243 263 159 134 139 125 125 109 93 96 122 171 201 213 225 229 229 228 228 233 237 238 238 241 244 249 253 254 256 259 261 260 261 262 262 262 263 263 263 264 265 266
218 165 183 227 174 220 195 257 221 179 166 151 138 122 105 93 85 85 96 133 177 203 216 221 224 229 235 241 241 240 243 246 249 251 254 257 259 261 261 262 263 264 265 265 265 266 266 266 267
167 189 208 227 223 253 210 234 331 172 163 154 137 120 105 91 83 83 84 86 102 132 170 199 215 224 232 239 239 240 242 246 249 252 254 257 259 261 263 263 263 264 265 266 266 267 268 267 267
248 213 199 201 190 233 341 262 319 151 152 146 139 127 106 98 96 89 85 88 87 89 103 132 186 216 230 238 240 243 246 250 252 254 256 258 259 261 263 263 263 264 265 265 266 267 268 268 268